Perryton, TX

12:22 AM CDT on May 28, 2018 (GMT -0500)
Perryton Ochiltree County

Weather History for KPYX - April, 2014

Change the Weather History Date:

Tuesday, April 22, 2014

  Actual Average Record
Temperature  
Mean Temperature 61 °F -  
Max Temperature 81 °F 71 °F 91 °F (1989)
Min Temperature 42 °F 41 °F 32 °F (1966)
Degree Days  
Heating Degree Days 4    
Growing Degree Days 11 (Base 50)    
Moisture  
Dew Point 41 °F    
Average Humidity 49    
Maximum Humidity 83    
Minimum Humidity 24    
Precipitation  
Precipitation 0.00 in - - ()
Sea Level Pressure  
Sea Level Pressure 30.05 in    
Wind  
Wind Speed 11 mph (SE)    
Max Wind Speed 25 mph    
Max Gust Speed 33 mph    
Visibility 10 miles    
Events      
Averages and records for this station are not official NWS values.
T = Trace of Precipitation, MM = Missing Value Source: NWS Daily Summary

Daily Weather History Graph

Daily Weather History Graph

Search for Another Location

Airport or City:

Astronomy

Apr. 22, 2014 Rise Set
Actual Time 7:00 AM CDT 8:23 PM CDT
Civil Twilight 6:33 AM CDT 8:50 PM CDT
Nautical Twilight 6:01 AM CDT 9:22 PM CDT
Astronomical Twilight 5:27 AM CDT 9:56 PM CDT
Moon 2:38 AM CDT (4/22) 1:38 PM CDT (4/22)
Length of Visible Light 14h 16m
Length of Day
13h 22m
Last Quarter, 46% of the Moon is Illuminated
Apr 22
Last Quarter
Apr 29
New
May 6
First Quarter
May 14
Full
May 21
Last Quarter

Hourly Weather History & Observations

Time (CDT) Temp. Windchill Dew Point Humidity Pressure Visibility Wind Dir Wind Speed Gust Speed Precip Events Conditions
12:15 AM 56.5 °F - 45.9 °F 68% 30.16 in 10.0 mi ENE 6.9 mph - N/A   Clear
12:35 AM 54.5 °F - 45.7 °F 72% 30.17 in 10.0 mi ENE 3.5 mph - N/A   Clear
12:55 AM 55.6 °F - 45.1 °F 68% 30.16 in 10.0 mi ENE 8.1 mph - N/A   Clear
1:15 AM 55.0 °F - 44.1 °F 67% 30.16 in 10.0 mi ENE 9.2 mph - N/A   Clear
1:35 AM 51.8 °F - 43.9 °F 74% 30.16 in 10.0 mi ENE 6.9 mph - N/A   Clear
1:55 AM 51.3 °F - 43.3 °F 74% 30.16 in 10.0 mi ESE 4.6 mph - N/A   Clear
2:15 AM 50.9 °F - 43.0 °F 74% 30.16 in 10.0 mi East 4.6 mph - N/A   Clear
2:35 AM 50.2 °F - 42.6 °F 75% 30.16 in 10.0 mi ESE 3.5 mph - N/A   Clear
2:55 AM 49.6 °F - 42.4 °F 76% 30.16 in 10.0 mi ESE 4.6 mph - N/A   Clear
3:15 AM 50.0 °F - 42.4 °F 75% 30.16 in 10.0 mi East 8.1 mph - N/A   Clear
3:35 AM 49.6 °F - 41.9 °F 75% 30.16 in 10.0 mi East 8.1 mph - N/A   Clear
3:55 AM 49.5 °F - 41.5 °F 74% 30.16 in 10.0 mi East 8.1 mph - N/A   Clear
4:15 AM 47.8 °F - 41.0 °F 77% 30.16 in 10.0 mi East 6.9 mph - N/A   Clear
4:35 AM 46.9 °F - 40.3 °F 78% 30.16 in 10.0 mi SE 3.5 mph - N/A   Clear
5:15 AM 45.0 °F - 39.7 °F 82% 30.16 in 10.0 mi Calm Calm - N/A   Clear
5:35 AM 46.2 °F 45.0 °F 40.5 °F 80% 30.15 in 10.0 mi ESE 3.5 mph - N/A   Clear
5:55 AM 45.1 °F 43.7 °F 39.7 °F 81% 30.16 in 10.0 mi SE 3.5 mph - N/A   Clear
6:15 AM 42.6 °F 40.9 °F 37.9 °F 83% 30.16 in 10.0 mi SSE 3.5 mph - N/A   Clear
6:55 AM 43.9 °F 41.3 °F 37.8 °F 79% 30.16 in 10.0 mi SE 4.6 mph - N/A   Clear
7:15 AM 46.4 °F 44.3 °F 37.2 °F 70% 30.17 in 10.0 mi ESE 4.6 mph - N/A   Clear
7:35 AM 46.8 °F - 36.9 °F 68% 30.17 in 10.0 mi ESE 4.6 mph - N/A   Clear
7:55 AM 46.2 °F 42.7 °F 37.9 °F 73% 30.16 in 10.0 mi SE 6.9 mph - N/A   Clear
8:15 AM 48.2 °F - 41.0 °F 76% 30.16 in 10.0 mi SE 5.8 mph - N/A   Clear
8:35 AM 52.9 °F - 41.2 °F 64% 30.16 in 10.0 mi SE 6.9 mph - N/A   Clear
8:55 AM 55.2 °F - 40.3 °F 57% 30.17 in 10.0 mi SSE 5.8 mph - N/A   Clear
9:15 AM 58.1 °F - 36.1 °F 44% 30.17 in 10.0 mi SE 11.5 mph - N/A   Clear
9:35 AM 59.7 °F - 33.3 °F 37% 30.17 in 10.0 mi SE 13.8 mph - N/A   Clear
9:55 AM 61.2 °F - 33.1 °F 35% 30.17 in 10.0 mi SE 15.0 mph - N/A   Clear
10:15 AM 63.1 °F - 32.9 °F 32% 30.16 in 10.0 mi SE 13.8 mph - N/A   Clear
10:35 AM 64.6 °F - 34.3 °F 32% 30.16 in 10.0 mi SE 13.8 mph 18.4 mph N/A   Clear
10:55 AM 66.4 °F - 33.6 °F 30% 30.16 in 10.0 mi SSE 16.1 mph 20.7 mph N/A   Clear
11:15 AM 67.3 °F - 35.4 °F 31% 30.15 in 10.0 mi SSE 18.4 mph - N/A   Clear
11:35 AM 68.2 °F - 36.5 °F 31% 30.15 in 10.0 mi SSE 16.1 mph - N/A   Clear
11:55 AM 69.8 °F - 37.2 °F 30% 30.14 in 10.0 mi South 15.0 mph 23.0 mph N/A   Clear
12:15 PM 70.0 °F - 39.4 °F 33% 30.14 in 10.0 mi South 13.8 mph 27.6 mph N/A   Clear
12:35 PM 71.4 °F - 40.8 °F 33% 30.12 in 10.0 mi South 15.0 mph 21.9 mph N/A   Clear
12:55 PM 71.8 °F - 40.6 °F 32% 30.11 in 10.0 mi South 16.1 mph 21.9 mph N/A   Clear
1:15 PM 73.0 °F - 40.8 °F 31% 30.09 in 10.0 mi SSE 16.1 mph 23.0 mph N/A   Clear
1:35 PM 74.5 °F - 42.3 °F 31% 30.07 in 10.0 mi SSW 11.5 mph 23.0 mph N/A   Clear
1:55 PM 75.6 °F - 42.8 °F 31% 30.06 in 10.0 mi South 13.8 mph 23.0 mph N/A   Clear
2:15 PM 76.3 °F - 42.4 °F 30% 30.04 in 10.0 mi South 15.0 mph 23.0 mph N/A   Clear
2:35 PM 77.2 °F - 43.2 °F 30% 30.03 in 10.0 mi SSE 19.6 mph 25.3 mph N/A   Clear
2:55 PM 78.1 °F - 42.6 °F 28% 30.02 in 10.0 mi South 19.6 mph 28.8 mph N/A   Clear
3:15 PM 78.3 °F - 43.3 °F 29% 30.00 in 10.0 mi South 19.6 mph 28.8 mph N/A   Clear
3:35 PM 80.2 °F - 43.0 °F 27% 29.99 in 10.0 mi South 16.1 mph 32.2 mph N/A   Clear
3:55 PM 80.2 °F - 42.1 °F 26% 29.97 in 10.0 mi South 19.6 mph 25.3 mph N/A   Clear
4:15 PM 80.2 °F - 41.0 °F 25% 29.96 in 10.0 mi South 17.3 mph 27.6 mph N/A   Clear
4:35 PM 80.1 °F - 40.6 °F 25% 29.94 in 10.0 mi South 19.6 mph 28.8 mph N/A   Clear
4:55 PM 80.6 °F - 41.0 °F 24% 29.93 in 10.0 mi South 18.4 mph 29.9 mph N/A   Clear
5:15 PM 80.1 °F - 40.3 °F 24% 29.92 in 10.0 mi South 19.6 mph 28.8 mph N/A   Clear
5:35 PM 80.1 °F - 40.3 °F 24% 29.91 in 10.0 mi SSE 21.9 mph 29.9 mph N/A   Clear
5:55 PM 79.9 °F - 40.3 °F 24% 29.90 in 10.0 mi South 19.6 mph 29.9 mph N/A   Clear
6:15 PM 79.5 °F - 39.9 °F 24% 29.89 in 10.0 mi South 23.0 mph 29.9 mph N/A   Clear
6:35 PM 78.8 °F - 40.3 °F 25% 29.88 in 10.0 mi SSE 25.3 mph 29.9 mph N/A   Clear
6:55 PM 78.1 °F - 40.3 °F 26% 29.88 in 10.0 mi South 21.9 mph 29.9 mph N/A   Clear
7:15 PM 77.2 °F - 40.3 °F 27% 29.88 in 10.0 mi SSE 25.3 mph 31.1 mph N/A   Clear
7:35 PM 76.1 °F - 41.5 °F 29% 29.87 in 10.0 mi SSE 24.2 mph 29.9 mph N/A   Clear
7:55 PM 74.3 °F - 43.3 °F 33% 29.86 in 10.0 mi SSE 20.7 mph 33.4 mph N/A   Clear
8:15 PM 72.5 °F - 44.4 °F 36% 29.87 in 10.0 mi SSE 24.2 mph 28.8 mph N/A   Clear
8:35 PM 71.2 °F - 45.3 °F 39% 29.86 in 10.0 mi SSE 20.7 mph 26.5 mph N/A   Clear
9:15 PM 69.3 °F - 46.9 °F 45% 29.87 in 10.0 mi SSE 19.6 mph 26.5 mph N/A   Clear
9:35 PM 68.5 °F - 47.8 °F 48% 29.87 in 10.0 mi SSE 21.9 mph 27.6 mph N/A   Clear
9:55 PM 68.2 °F - 48.2 °F 49% 29.87 in 10.0 mi SSE 23.0 mph 29.9 mph N/A   Clear
10:15 PM 67.3 °F - 48.4 °F 51% 29.87 in 10.0 mi SSE 21.9 mph 29.9 mph N/A   Clear
10:35 PM 66.6 °F - 48.6 °F 52% 29.87 in 10.0 mi SSE 24.2 mph 29.9 mph N/A   Clear
10:55 PM 66.2 °F - 48.4 °F 53% 29.87 in 10.0 mi SSE 21.9 mph 31.1 mph N/A   Clear
11:15 PM 65.7 °F - 48.4 °F 54% 29.87 in 10.0 mi SSE 24.2 mph 29.9 mph N/A   Clear
11:35 PM 65.3 °F - 48.6 °F 55% 29.86 in 10.0 mi SSE 21.9 mph - N/A   Clear
11:55 PM 64.4 °F - 48.6 °F 56% 29.87 in 10.0 mi SSE 19.6 mph 25.3 mph N/A   Clear